Meteo orario Al Kharj

Oggi, 25 Ottobre, Domenica

Tempo Temperatura Precipitazioni Vento Pressione Umidità
00:00 +20°C° 0 mm 1 m/s 723 mm Hg 27%
01:00 +20°C° 0 mm 1 m/s 722 mm Hg 28%
02:00 +17°C° 0 mm 0 m/s 722 mm Hg 29%
03:00 +16°C° 0 mm 0 m/s 722 mm Hg 30%
04:00 +16°C° 0 mm 0 m/s 722 mm Hg 31%
05:00 +18°C° 0 mm 1 m/s 722 mm Hg 31%
06:00 +18°C° 0 mm 1 m/s 723 mm Hg 31%
07:00 +21°C° 0 mm 1 m/s 723 mm Hg 26%
08:00 +25°C° 0 mm 1 m/s 724 mm Hg 21%
09:00 +29°C° 0 mm 2 m/s 725 mm Hg 15%
10:00 +30°C° 0 mm 2 m/s 724 mm Hg 14%
11:00 +33°C° 0 mm 3 m/s 724 mm Hg 12%
12:00 +35°C° 0 mm 4 m/s 723 mm Hg 11%
13:00 +35°C° 0 mm 4 m/s 723 mm Hg 11%
14:00 +35°C° 0 mm 4 m/s 722 mm Hg 11%
15:00 +36°C° 0 mm 4 m/s 722 mm Hg 11%
16:00 +33°C° 0 mm 4 m/s 722 mm Hg 12%
17:00 +30°C° 0 mm 4 m/s 722 mm Hg 14%
18:00 +28°C° 0 mm 4 m/s 722 mm Hg 16%
19:00 +27°C° 0 mm 4 m/s 722 mm Hg 17%
20:00 +26°C° 0 mm 3 m/s 723 mm Hg 18%
21:00 +25°C° 0 mm 3 m/s 723 mm Hg 19%
22:00 +25°C° 0 mm 3 m/s 723 mm Hg 21%
23:00 +24°C° 0 mm 2 m/s 723 mm Hg 22%

Domani, 26 Ottobre, Lunedi

Tempo Temperatura Precipitazioni Vento Pressione Umidità
00:00 +23°C° 0 mm 2 m/s 723 mm Hg 24%
01:00 +21°C° 0 mm 2 m/s 723 mm Hg 26%
02:00 +20°C° 0 mm 2 m/s 723 mm Hg 28%
03:00 +20°C° 0 mm 1 m/s 722 mm Hg 30%
04:00 +19°C° 0 mm 1 m/s 723 mm Hg 32%
05:00 +19°C° 0 mm 1 m/s 723 mm Hg 34%
06:00 +18°C° 0 mm 1 m/s 723 mm Hg 36%
07:00 +21°C° 0 mm 1 m/s 724 mm Hg 30%
08:00 +25°C° 0 mm 1 m/s 724 mm Hg 24%
09:00 +29°C° 0 mm 1 m/s 725 mm Hg 18%
10:00 +30°C° 0 mm 1 m/s 725 mm Hg 16%
11:00 +32°C° 0 mm 2 m/s 724 mm Hg 14%
12:00 +34°C° 0 mm 2 m/s 724 mm Hg 12%
13:00 +35°C° 0 mm 2 m/s 723 mm Hg 12%
14:00 +35°C° 0 mm 2 m/s 723 mm Hg 11%
15:00 +35°C° 0 mm 2 m/s 722 mm Hg 11%
16:00 +32°C° 0 mm 2 m/s 723 mm Hg 14%
17:00 +29°C° 0 mm 2 m/s 723 mm Hg 16%
18:00 +27°C° 0 mm 2 m/s 723 mm Hg 18%
19:00 +26°C° 0 mm 2 m/s 723 mm Hg 19%
20:00 +25°C° 0 mm 2 m/s 723 mm Hg 20%
21:00 +25°C° 0 mm 2 m/s 723 mm Hg 21%
22:00 +24°C° 0 mm 2 m/s 723 mm Hg 22%
23:00 +23°C° 0 mm 1 m/s 723 mm Hg 24%

Dopodomani, 27 Ottobre, Martedi

Tempo Temperatura Precipitazioni Vento Pressione Umidità
00:00 +22°C° 0 mm 1 m/s 723 mm Hg 25%
01:00 +21°C° 0 mm 1 m/s 723 mm Hg 27%
02:00 +20°C° 0 mm 1 m/s 722 mm Hg 29%
03:00 +19°C° 0 mm 1 m/s 722 mm Hg 31%
04:00 +19°C° 0 mm 1 m/s 722 mm Hg 32%
05:00 +16°C° 0 mm 0 m/s 722 mm Hg 34%
06:00 +16°C° 0 mm 0 m/s 723 mm Hg 36%
07:00 +22°C° 0 mm 1 m/s 723 mm Hg 30%
08:00 +25°C° 0 mm 1 m/s 724 mm Hg 24%
09:00 +29°C° 0 mm 1 m/s 725 mm Hg 18%
10:00 +30°C° 0 mm 1 m/s 724 mm Hg 17%
11:00 +32°C° 0 mm 1 m/s 724 mm Hg 15%
12:00 +33°C° 0 mm 1 m/s 724 mm Hg 13%
13:00 +34°C° 0 mm 1 m/s 723 mm Hg 12%
14:00 +35°C° 0 mm 2 m/s 723 mm Hg 11%
15:00 +35°C° 0 mm 2 m/s 722 mm Hg 10%
16:00 +31°C° 0 mm 2 m/s 722 mm Hg 13%
17:00 +29°C° 0 mm 2 m/s 722 mm Hg 15%
18:00 +26°C° 0 mm 1 m/s 722 mm Hg 17%
19:00 +25°C° 0 mm 2 m/s 723 mm Hg 17%
20:00 +25°C° 0 mm 2 m/s 723 mm Hg 16%
21:00 +25°C° 0 mm 3 m/s 723 mm Hg 16%
22:00 +24°C° 0 mm 3 m/s 723 mm Hg 17%
23:00 +23°C° 0 mm 2 m/s 723 mm Hg 18%

28 Ottobre, Mercoledi

Tempo Temperatura Precipitazioni Vento Pressione Umidità
00:00 +21°C° 0 mm 2 m/s 723 mm Hg 19%
01:00 +21°C° 0 mm 1 m/s 722 mm Hg 20%
02:00 +20°C° 0 mm 1 m/s 722 mm Hg 22%
03:00 +16°C° 0 mm 0 m/s 722 mm Hg 24%
04:00 +16°C° 0 mm 0 m/s 722 mm Hg 24%
05:00 +18°C° 0 mm 1 m/s 722 mm Hg 24%
06:00 +18°C° 0 mm 1 m/s 723 mm Hg 24%
07:00 +22°C° 0 mm 1 m/s 723 mm Hg 20%
08:00 +26°C° 0 mm 1 m/s 724 mm Hg 16%
09:00 +29°C° 0 mm 2 m/s 725 mm Hg 12%
10:00 +31°C° 0 mm 2 m/s 724 mm Hg 11%
11:00 +32°C° 0 mm 2 m/s 724 mm Hg 11%
12:00 +35°C° 0 mm 2 m/s 724 mm Hg 10%
13:00 +35°C° 0 mm 2 m/s 723 mm Hg 9%
14:00 +35°C° 0 mm 2 m/s 723 mm Hg 9%
15:00 +36°C° 0 mm 2 m/s 722 mm Hg 8%
16:00 +33°C° 0 mm 3 m/s 722 mm Hg 10%
17:00 +30°C° 0 mm 3 m/s 722 mm Hg 12%
18:00 +27°C° 0 mm 3 m/s 722 mm Hg 13%
19:00 +26°C° 0 mm 3 m/s 723 mm Hg 14%
20:00 +25°C° 0 mm 3 m/s 723 mm Hg 15%
21:00 +24°C° 0 mm 3 m/s 723 mm Hg 17%
22:00 +23°C° 0 mm 2 m/s 723 mm Hg 18%
23:00 +22°C° 0 mm 1 m/s 723 mm Hg 20%

29 Ottobre, Giovedi

Tempo Temperatura Precipitazioni Vento Pressione Umidità
00:00 +20°C° 0 mm 1 m/s 723 mm Hg 22%
01:00 +18°C° 0 mm 0 m/s 723 mm Hg 23%
02:00 +17°C° 0 mm 0 m/s 723 mm Hg 24%
03:00 +16°C° 0 mm 0 m/s 722 mm Hg 24%
04:00 +16°C° 0 mm 0 m/s 723 mm Hg 24%
05:00 +18°C° 0 mm 1 m/s 723 mm Hg 25%
06:00 +18°C° 0 mm 1 m/s 723 mm Hg 25%
07:00 +22°C° 0 mm 1 m/s 724 mm Hg 21%
08:00 +26°C° 0 mm 1 m/s 724 mm Hg 17%
09:00 +29°C° 0 mm 1 m/s 725 mm Hg 12%
10:00 +31°C° 0 mm 1 m/s 725 mm Hg 11%
11:00 +32°C° 0 mm 2 m/s 725 mm Hg 10%
12:00 +34°C° 0 mm 2 m/s 724 mm Hg 8%
13:00 +35°C° 0 mm 2 m/s 724 mm Hg 8%
14:00 +35°C° 0 mm 2 m/s 723 mm Hg 8%
15:00 +35°C° 0 mm 2 m/s 723 mm Hg 7%
16:00 +33°C° 0 mm 3 m/s 723 mm Hg 8%
17:00 +29°C° 0 mm 3 m/s 723 mm Hg 9%
18:00 +27°C° 0 mm 4 m/s 723 mm Hg 11%
19:00 +26°C° 0 mm 4 m/s 723 mm Hg 12%
20:00 +25°C° 0 mm 4 m/s 724 mm Hg 13%
21:00 +23°C° 0 mm 4 m/s 724 mm Hg 14%
22:00 +21°C° 0 mm 3 m/s 724 mm Hg 15%
23:00 +20°C° 0 mm 2 m/s 724 mm Hg 17%

30 Ottobre, Venerdi

Tempo Temperatura Precipitazioni Vento Pressione Umidità
00:00 +20°C° 0 mm 1 m/s 724 mm Hg 19%
01:00 +19°C° 0 mm 1 m/s 723 mm Hg 21%
02:00 +16°C° 0 mm 0 m/s 723 mm Hg 22%
03:00 +15°C° 0 mm 0 m/s 723 mm Hg 23%
04:00 +15°C° 0 mm 0 m/s 723 mm Hg 24%
05:00 +15°C° 0 mm 0 m/s 723 mm Hg 25%
06:00 +14°C° 0 mm 0 m/s 724 mm Hg 25%
07:00 +18°C° 0 mm 0 m/s 724 mm Hg 21%
08:00 +22°C° 0 mm 0 m/s 725 mm Hg 17%
09:00 +27°C° 0 mm 1 m/s 726 mm Hg 13%
10:00 +29°C° 0 mm 1 m/s 725 mm Hg 12%
11:00 +30°C° 0 mm 1 m/s 725 mm Hg 11%
12:00 +32°C° 0 mm 1 m/s 724 mm Hg 10%
13:00 +32°C° 0 mm 1 m/s 724 mm Hg 9%
14:00 +32°C° 0 mm 1 m/s 723 mm Hg 8%
15:00 +33°C° 0 mm 1 m/s 723 mm Hg 8%
16:00 +30°C° 0 mm 1 m/s 723 mm Hg 9%
17:00 +28°C° 0 mm 2 m/s 723 mm Hg 10%
18:00 +26°C° 0 mm 3 m/s 723 mm Hg 12%
19:00 +25°C° 0 mm 3 m/s 723 mm Hg 13%
20:00 +24°C° 0 mm 3 m/s 723 mm Hg 15%
21:00 +22°C° 0 mm 3 m/s 723 mm Hg 16%
22:00 +22°C° 0 mm 3 m/s 723 mm Hg 19%
23:00 +21°C° 0 mm 2 m/s 723 mm Hg 22%
Mostrare altro

Abbiamo bisogno del tuo consenso

Meteoprog e i nostri fornitori di servizi possono memorizzare e accedere a dati personali come cookie, identificatori di dispositivi o altre tecnologie simili sul tuo dispositivo e possono elaborare tali dati per personalizzare i contenuti e gli annunci, nonché fornire funzionalità dei social media e analizzarne il traffico.

  • Archiviare e/o accedere alle informazioni sul tuo dispositivo

    Cookie, identificatori di dispositivi o altre informazioni possono essere memorizzati o resi accessibili sul tuo dispositivo per le finalità sopra indicate.

  • Annunci e contenuti personalizzati, misurazione di annunci e contenuti, approfondimenti sul pubblico e sviluppo di prodotti

    Gli annunci e i contenuti possono essere personalizzati in base a un profilo. È possibile aggiungere più dati per personalizzare meglio annunci e contenuti. È possibile misurare il rendimento degli annunci e dei contenuti. È possibile ricavare informazioni sul pubblico che ha visto gli annunci e i contenuti. Tali dati possono essere utilizzati per sviluppare o migliorare l'esperienza, i sistemi e il software dell'utente.

Cliccando su “Accetto”, acconsenti all'uso di cookie, identificatori di dispositivo, web beacon o altre tecnologie simili. Puoi modificare le impostazioni nel browser del tuo dispositivo.

Per determinati scopi, è possibile fare affidamento su interessi legali, piuttosto che sul consenso. Puoi approfondire questo argomento consultando la nostra Informativa sulla privacy e sui cookie.